Weather History for Miami, FL

Change the Weather History Date:

Saturday, July 14, 2012

  Actual Average Record
Temperature  
Mean Temperature 83 °F 84 °F  
Max Temperature 88 °F 91 °F 95 °F (1987)
Min Temperature 78 °F 77 °F 69 °F (1918)
Degree Days  
Heating Degree Days 0 0  
Month to date heating degree days 0 0  
Since 1 June heating degree days 0 0  
Since 1 July heating degree days 0 0  
Cooling Degree Days 18 19  
Month to date cooling degree days 257 265  
Year to date cooling degree days 2331 2153  
Since 1 June cooling degree days 790 797  
Growing Degree Days 30 (Base 50)    
Moisture  
Dew Point 72 °F    
Average Humidity 71    
Maximum Humidity 85    
Minimum Humidity 57    
Precipitation  
Precipitation 0.02 in 0.19 in 1.88 in (1987)
Month to date precipitation 4.68 3.25  
Year to date precipitation 48.32 28.27  
Snow  
Snow 0.00 in - - ()
Month to date snowfall 0.0  
Since 1 June snowfall 0.0  
Since 1 July snowfall 0.0  
Snow Depth 0.00 in    
Sea Level Pressure  
Sea Level Pressure 30.05 in    
Wind  
Wind Speed 10 mph (ESE)    
Max Wind Speed 20 mph    
Max Gust Speed 25 mph    
Visibility 10 miles    
Events Rain    
T = Trace of Precipitation, MM = Missing Value Source: NWS Daily Summary

Daily Weather History Graph

Daily Weather History Graph

Search for Another Location

Airport:

Trip Planner

Search our weather history database for the weather conditions in past years. The results will help you decide how hot, cold, wet, or windy it might be!

Date:

Astronomy

Jul. 14, 2012 Rise Set
Actual Time 6:39 AM EDT 8:15 PM EDT
Civil Twilight 6:13 AM EDT 8:40 PM EDT
Nautical Twilight 5:42 AM EDT 9:11 PM EDT
Astronomical Twilight 5:10 AM EDT 9:43 PM EDT
Moon 2:49 AM EDT (7/14) 4:39 PM EDT (7/14)
Length of Visible Light 14h 27m
Length of Day
13h 36m
Waning Crescent, 19% of the Moon is Illuminated
Jul 14
Waning Crescent
Jul 19
New
Jul 26
First Quarter
Aug 1
Full
Aug 9
Last Quarter

Hourly Weather History & Observations

Time (EDT) Temp. Heat Index Dew Point Humidity Pressure Visibility Wind Dir Wind Speed Gust Speed Precip Events Conditions
12:53 AM 79.0 °F - 73.0 °F 82% 30.04 in 10.0 mi East 5.8 mph - N/A   Partly Cloudy
1:53 AM 80.1 °F 83.8 °F 72.0 °F 76% 30.03 in 10.0 mi ENE 4.6 mph - N/A   Partly Cloudy
2:53 AM 79.0 °F - 73.0 °F 82% 30.01 in 10.0 mi East 5.8 mph - N/A   Partly Cloudy
3:53 AM 80.6 °F 84.6 °F 71.6 °F 74% 30.00 in 10.0 mi ESE 9.2 mph - N/A   Partly Cloudy
4:53 AM 78.8 °F - 71.6 °F 78% 29.99 in 10.0 mi ESE 9.2 mph - N/A   Partly Cloudy
5:53 AM 80.1 °F 83.8 °F 72.0 °F 76% 30.01 in 10.0 mi East 8.1 mph - N/A   Partly Cloudy
6:53 AM 79.0 °F - 71.1 °F 77% 30.02 in 10.0 mi East 6.9 mph - N/A   Scattered Clouds
7:53 AM 82.4 °F 87.2 °F 71.6 °F 70% 30.04 in 10.0 mi East 8.1 mph - N/A   Scattered Clouds
8:53 AM 82.0 °F 86.7 °F 72.0 °F 71% 30.06 in 10.0 mi SE 9.2 mph - 0.00 in Rain Light Rain
9:53 AM 84.9 °F 90.7 °F 72.0 °F 65% 30.07 in 10.0 mi East 15.0 mph 19.6 mph 0.00 in   Mostly Cloudy
10:53 AM 80.1 °F 84.2 °F 73.0 °F 79% 30.08 in 7.0 mi SE 4.6 mph - 0.02 in Rain Light Rain
11:53 AM 84.9 °F 92.1 °F 73.9 °F 69% 30.09 in 10.0 mi East 16.1 mph - 0.00 in   Mostly Cloudy
12:53 PM 86.0 °F 93.0 °F 73.0 °F 65% 30.08 in 10.0 mi East 13.8 mph - N/A   Mostly Cloudy
1:53 PM 87.1 °F 93.6 °F 72.0 °F 61% 30.07 in 10.0 mi ESE 16.1 mph 24.2 mph 0.00 in   Mostly Cloudy
2:53 PM 86.0 °F 90.7 °F 70.0 °F 59% 30.05 in 10.0 mi ESE 17.3 mph - N/A   Mostly Cloudy
3:53 PM 86.0 °F 91.5 °F 71.1 °F 61% 30.04 in 10.0 mi ESE 15.0 mph 20.7 mph N/A   Mostly Cloudy
4:53 PM 86.0 °F 90.1 °F 69.1 °F 57% 30.03 in 10.0 mi ESE 11.5 mph 18.4 mph N/A   Mostly Cloudy
5:53 PM 84.0 °F 89.0 °F 71.1 °F 65% 30.02 in 10.0 mi ESE 12.7 mph - N/A   Mostly Cloudy
6:53 PM 82.9 °F 88.0 °F 72.0 °F 69% 30.03 in 10.0 mi East 13.8 mph - N/A   Mostly Cloudy
7:53 PM 82.9 °F 87.5 °F 71.1 °F 67% 30.04 in 10.0 mi East 13.8 mph - N/A   Mostly Cloudy
8:53 PM 82.0 °F 86.3 °F 71.1 °F 69% 30.05 in 10.0 mi ESE 11.5 mph - N/A   Mostly Cloudy
9:53 PM 82.0 °F 86.3 °F 71.1 °F 69% 30.07 in 10.0 mi ESE 8.1 mph - N/A   Mostly Cloudy
10:53 PM 81.0 °F 84.9 °F 71.1 °F 72% 30.09 in 10.0 mi ESE 6.9 mph - N/A   Mostly Cloudy
11:53 PM 80.1 °F 83.6 °F 71.1 °F 74% 30.09 in 10.0 mi ESE 4.6 mph - N/A   Mostly Cloudy